This is the latest recevied weather packets stored in our database for station/object SP1BMW-13. If no packets are shown the sender has not sent any weather packets the latest 10 day(s).
| Time | Temp. | Humidity | Pressure | Rain* | Wind** | Luminosity | Snow |
|---|---|---|---|---|---|---|---|
| 1787713873 | 14.44° C | 79% | 1020.6 hPa | 0 mm | 0.45 m/s, 122° | 0 W/m² | - |
| 1787713813 | 14.44° C | 79% | 1020.6 hPa | 0 mm | 0.45 m/s, 74° | 0 W/m² | - |
| 1787713753 | 14.44° C | 79% | 1020.8 hPa | 0 mm | 0.45 m/s, 42° | 0 W/m² | - |
| 1787713693 | 14.44° C | 79% | 1020.6 hPa | 0 mm | 0.45 m/s, 48° | 0 W/m² | - |
| 1787713633 | 14.44° C | 79% | 1020.7 hPa | 0 mm | 0.89 m/s, 25° | 0 W/m² | - |
| 1787713573 | 14.44° C | 79% | 1020.6 hPa | 0 mm | 0 m/s | 0 W/m² | - |
| 1787713513 | 14.44° C | 79% | 1020.7 hPa | 0 mm | 0.45 m/s, 159° | 0 W/m² | - |
| 1787713453 | 14.44° C | 80% | 1020.7 hPa | 0 mm | 0 m/s | 0 W/m² | - |
| 1787713394 | 14.44° C | 79% | 1020.6 hPa | 0 mm | 0 m/s | 0 W/m² | - |
| 1787713333 | 14.44° C | 79% | 1020.8 hPa | 0 mm | 0.45 m/s, 122° | 0 W/m² | - |
| 1787713273 | 14.44° C | 79% | 1020.7 hPa | 0 mm | 0.45 m/s, 79° | 0 W/m² | - |
| 1787713213 | 14.44° C | 79% | 1020.6 hPa | 0 mm | 0 m/s | 0 W/m² | - |
| 1787713153 | 14.44° C | 79% | 1020.6 hPa | 0 mm | 0.89 m/s, 56° | 0 W/m² | - |
| 1787713094 | 14.44° C | 79% | 1020.7 hPa | 0 mm | 0 m/s | 0 W/m² | - |
| 1787713033 | 14.44° C | 79% | 1020.6 hPa | 0 mm | 0.45 m/s, 105° | 0 W/m² | - |
| 1787712976 | 14.44° C | 79% | 1020.7 hPa | 0 mm | 0.89 m/s, 75° | 0 W/m² | - |
| 1787712914 | 14.44° C | 79% | 1020.6 hPa | 0 mm | 0 m/s | 0 W/m² | - |
| 1787712853 | 14.44° C | 79% | 1020.8 hPa | 0 mm | 0.45 m/s, 73° | 0 W/m² | - |
| 1787712793 | 14.44° C | 80% | 1020.5 hPa | 0 mm | 0 m/s | 0 W/m² | - |
| 1787712733 | 14.44° C | 80% | 1020.7 hPa | 0 mm | 0.45 m/s, 51° | 0 W/m² | - |
| 1787712673 | 14.44° C | 79% | 1020.6 hPa | 0 mm | 0 m/s | 0 W/m² | - |
| 1787712613 | 14.44° C | 79% | 1020.5 hPa | 0 mm | 0 m/s | 0 W/m² | - |
| 1787712553 | 14.44° C | 79% | 1020.8 hPa | 0 mm | 0 m/s | 0 W/m² | - |
| 1787712493 | 14.44° C | 79% | 1020.5 hPa | 0 mm | 0.45 m/s, 96° | 0 W/m² | - |
| 1787712434 | 14.44° C | 79% | 1020.8 hPa | 0 mm | 0 m/s | 0 W/m² | - |
* Rain latest hour (hover to see other rain measurements)
** Current wind speed in m/s (hover to see current wind gust speed)